, NM

(GMT )
Holloman AFB

Weather History for KHMN - December, 2013

Change the Weather History Date:

Friday, December 27, 2013

  Actual Average Record
Temperature  
Mean Temperature 36 °F -  
Max Temperature 52 °F 50 °F 66 °F (1996)
Min Temperature 20 °F 23 °F 12 °F (1997)
Degree Days  
Heating Degree Days 29    
Moisture  
Dew Point 21 °F    
Average Humidity 62    
Maximum Humidity 85    
Minimum Humidity 27    
Precipitation  
Precipitation 0.00 in - - ()
Sea Level Pressure  
Sea Level Pressure 30.30 in    
Wind  
Wind Speed 4 mph (East)    
Max Wind Speed 8 mph    
Max Gust Speed -    
Visibility 10 miles    
Events      
Averages and records for this station are not official NWS values.
T = Trace of Precipitation, MM = Missing Value Source: NWS Daily Summary

Daily Weather History Graph

Daily Weather History Graph

Search for Another Location

Airport or City:

Trip Planner

Search our weather history database for the weather conditions in past years. The results will help you decide how hot, cold, wet, or windy it might be!

Date:

Astronomy

Dec. 27, 2013 Rise Set
Actual Time 7:05 AM MST 5:05 PM MST
Civil Twilight 6:38 AM MST 5:33 PM MST
Nautical Twilight 6:07 AM MST 6:03 PM MST
Astronomical Twilight 5:37 AM MST 6:34 PM MST
Moon 1:50 AM MST (12/27) 1:09 PM MST (12/27)
Length of Visible Light 10h 54m
Length of Day
10h 00m
Waning Crescent, 28% of the Moon is Illuminated
Dec 27
Waning Crescent
Jan 1
New
Jan 7
First Quarter
Jan 15
Full
Jan 23
Last Quarter

Hourly Weather History & Observations

Time (MST) Temp. Windchill Dew Point Humidity Pressure Visibility Wind Dir Wind Speed Gust Speed Precip Events Conditions
12:58 AM 26.4 °F 22.4 °F 20.5 °F 78% 30.30 in 10.0 mi NE 3.5 mph - N/A   Clear
1:58 AM 23.0 °F - 18.3 °F 82% 30.32 in 10.0 mi NW 2.3 mph - N/A   Clear
2:58 AM 23.4 °F 17.4 °F 18.7 °F 82% 30.31 in 10.0 mi North 4.6 mph - N/A   Clear
3:58 AM 23.4 °F 17.4 °F 18.3 °F 81% 30.31 in 10.0 mi North 4.6 mph - N/A   Clear
4:58 AM 23.2 °F 18.7 °F 18.1 °F 81% 30.30 in 10.0 mi NE 3.5 mph - N/A   Clear
5:58 AM 23.0 °F 15.8 °F 18.9 °F 84% 30.34 in 10.0 mi SE 5.8 mph - N/A   Clear
6:58 AM 20.3 °F - 16.3 °F 85% 30.37 in 10.0 mi Calm Calm - N/A   Clear
7:58 AM 23.0 °F - 17.8 °F 80% 30.39 in 10.0 mi Calm Calm - N/A   Clear
8:58 AM 29.3 °F - 23.0 °F 77% 30.40 in 10.0 mi SE 2.3 mph - N/A   Clear
9:58 AM 35.6 °F 31.7 °F 25.3 °F 66% 30.39 in 10.0 mi SE 4.6 mph - N/A   Clear
10:58 AM 41.7 °F 38.8 °F 27.9 °F 58% 30.36 in 10.0 mi SE 4.6 mph - N/A   Clear
11:58 AM 48.4 °F - 25.7 °F 41% 30.32 in 10.0 mi South 4.6 mph - N/A   Clear
12:58 PM 50.0 °F - 24.4 °F 37% 30.28 in 10.0 mi South 5.8 mph - N/A   Clear
1:58 PM 51.1 °F - 21.0 °F 31% 30.25 in 10.0 mi SSE 8.1 mph - N/A   Clear
2:58 PM 52.0 °F - 20.1 °F 29% 30.25 in 10.0 mi South 6.9 mph - N/A   Clear
3:58 PM 52.0 °F - 19.0 °F 27% 30.23 in 10.0 mi South 6.9 mph - N/A   Clear
4:58 PM 47.3 °F - 20.5 °F 35% 30.25 in 10.0 mi WNW 4.6 mph - N/A   Clear
5:58 PM 40.8 °F 38.8 °F 21.7 °F 47% 30.26 in 10.0 mi North 3.5 mph - N/A   Clear
6:58 PM 35.6 °F 31.7 °F 20.1 °F 53% 30.30 in 10.0 mi NNE 4.6 mph - N/A   Clear
7:58 PM 32.0 °F 24.8 °F 19.8 °F 61% 30.30 in 10.0 mi ENE 8.1 mph - N/A   Clear
8:58 PM 30.0 °F 24.1 °F 19.6 °F 65% 30.28 in 10.0 mi ENE 5.8 mph - N/A   Clear
9:58 PM 30.9 °F 25.2 °F 19.6 °F 63% 30.26 in 10.0 mi ENE 5.8 mph - N/A   Clear
10:58 PM 28.0 °F 20.8 °F 19.4 °F 70% 30.25 in 10.0 mi ENE 6.9 mph - N/A   Clear
11:58 PM 26.8 °F 18.5 °F 19.0 °F 73% 30.22 in 10.0 mi ENE 8.1 mph - N/A   Clear